E12 Siding Spring Survey. Observers R. H. McNaught, D. M. Burton. Measurers
R. H. McNaught, E. C. Beshore, E. J. Christensen, G. J. Garradd,
A. R. Gibbs, A. D. Grauer, R. E. Hill, R. A. Kowalski, S. M. Larson.
0.5-m Uppsala Schmidt + CCD.
G96 Mt. Lemmon Survey. Observer A. R. Gibbs. Measurers E. C. Beshore,
E. J. Christensen, G. J. Garradd, A. R. Gibbs, A. D. Grauer, R. E. Hill,
R. A. Kowalski, S. M. Larson, R. H. McNaught. 1.5-m reflector + CCD.
J95 Great Shefford. Observer P. Birtwhistle. 0.40-m f/6.0 Schmidt-Cassegrain
+ CCD.
Orbital elements:
2006 RH120 Earth MOID = 0.0138 AU
Epoch 2007 Oct. 27.0 TT = JDT 2454400.5 Chodas
M 336.29134 (2000.0) P Q
n 0.94650895 Peri. 4.71356 +0.55288698 -0.83321599
a 1.0273527 Node 51.72138 +0.76415619 +0.50309328
e 0.0205158 Incl. 0.59786 +0.33223682 +0.22945209
P 1.04 H 29.5 G 0.15 U 1
Residuals in seconds of arc
060914 703 0.4+ 1.8+ 061211 291 0.9- 0.2+ 070316 B31 1.2- 0.1-
060914 703 0.2+ 0.1- 061211 291 0.1+ 1.3- 070316 B31 1.1- 0.5-
060914 703 0.0+ 0.3- 061211 291 0.1+ 0.8- 070316 B31 (2.1- 1.6-)
060914 703 2.4+ 0.3- 061212 G96 0.0+ 0.4- 070316 B31 1.3- 0.6-
060914 703 0.9- 1.4+ 061212 G96 0.9- 0.2- 070317 B31 0.7+ 0.2+
060914 703 0.6- 0.7+ 061212 G96 0.1+ 2.0- 070317 B31 0.2+ 0.5+
060914 703 0.6- 0.8+ 061212 G96 0.4- 1.3- 070317 B31 0.6- 0.1-
060914 E12 0.8+ 0.3+ 061213 291 0.7- 0.7+ 070317 B31 0.8- 0.4-
060914 E12 0.0+ 1.0+ 061213 291 0.2- 1.0+ 070317 B31 0.9- 0.1+
060915 854 1.2+ 0.3+ 061213 291 0.1- 1.0- 070317 B31 1.0- 0.4-
060915 854 0.3- 0.4+ 061216 G96 0.1- 0.1- 070317 B31 0.8- 0.3-
060915 854 0.6+ 1.1+ 061216 G96 0.2- 0.2- 070317 B31 0.6- 0.0-
060916 703 0.7- 0.1- 061216 G96 0.1+ 0.2- 070317 B31 0.4- 0.2-
060916 703 0.1+ 0.5- 061216 G96 0.1+ 0.5- 070318 B31 0.5+ 0.7-
060916 703 0.3+ 0.3+ 061216 G96 0.4- 0.0+ 070318 B31 0.3+ 0.3+
060916 703 0.4+ 0.6+ 061217 G96 0.1+ 0.0+ 070318 B31 0.2+ 0.3+
060916 E12 0.8+ 0.1- 061217 G96 0.4+ 0.3- 070320 J95 0.8+ 1.3+
060916 E12 0.2- 0.6+ 070311 A60 0.8- 1.6- 070320 J95 1.2+ 0.9+
060916 E12 0.3+ 0.5+ 070311 A60 0.8- 1.7- 070320 J95 1.8+ 1.4+
060916 E12 0.8+ 0.3+ 070311 A60 1.0- 1.5- 070320 J95 1.9+ 1.6+
060916 E12 0.8+ 0.1+ 070311 A60 0.8- 1.7- 070320 J95 1.1+ 1.3+
060916 E12 0.4- 0.7+ 070311 A60 0.8- 1.7- 070320 J95 1.1+ 1.1+
060916 E12 0.2+ 0.8- 070311 A60 0.7- 1.8- 070612 252/252D 0.583+
060916 E12 0.0+ 0.3+ 070311 A60 1.7- 1.6- 070614 252/252D 0.524-
060916 E12 0.1+ 0.1+ 070311 A60 1.1- 1.7- 070615 J95 1.0- 1.8+
060916 E12 0.6+ 0.6- 070311 A60 0.8- 1.7- 070615 J95 0.8- 0.3+
060917 703 0.1- 0.9- 070311 A60 1.0- 1.9- 070615 J95 1.6- 0.7+
060917 703 0.1- 0.1- 070315 G96 0.7- 1.1- 070615 J95 1.5- 1.3+
060917 703 0.2+ 0.4+ 070315 G96 0.9- 0.2+ 070617 257/257D 1.889+
060918 E12 0.2- 0.2- 070315 G96 (2.5- 0.4+) 070618 J95 1.6- 0.5-
060918 E12 0.1+ 0.5- 070315 G96 0.5- 1.8- 070618 J95 1.5- 0.4+
060918 E12 0.2+ 0.1+ 070315 B31 0.6- 0.7- 070618 J95 0.5- 0.2-
060918 E12 0.1+ 0.4- 070315 B31 1.2- 0.7- 070618 J95 0.6- 0.3-
060921 E12 0.9- 0.9- 070315 B31 1.6- 0.9- 070618 J95 0.3- 0.8-
060921 E12 0.5- 0.4- 070315 B31 1.4- 0.7- 070618 J95 1.1- 0.1-
060922 693 0.6+ 0.1+ 070315 B31 1.7- 1.0- 070618 J95 1.8- 0.0+
060922 693 0.0- 0.7- 070316 B31 1.0- 0.6- 070619 J95 1.2- 0.4+
060922 693 0.4- 0.8+ 070316 B31 1.2- 0.8- 070619 J95 0.2- 0.2-
060923 E12 0.6- 0.6- 070316 B31 0.1- 0.6- 070620 J95 0.5- 0.7-
060923 E12 0.5- 1.0- 070316 B31 0.4- 0.5- 070620 J95 0.8- 0.4+
060925 E12 0.3- 1.0- 070316 B31 0.5+ 0.1- 070620 J95 0.8- 0.1+
060926 E12 0.6- 1.1- 070316 B31 0.6- 0.7- 070621 J95 1.2- 0.2+
060926 E12 0.9- 1.5- 070316 B31 0.5- 0.8- 070622 G96 0.4- 0.3+
060928 E12 1.0- 1.7- 070316 B31 0.5- 0.6- 070622 G96 0.9- 0.0-
060928 E12 0.5- 1.3- 070316 B31 0.9- 0.5- 070622 G96 0.7- 0.4+
The above orbit solution by P. Chodas (JPL) considers solar radiation
pressure and a simplified Yarkovsky model.
Gareth V. Williams (C) Copyright 2008 MPC M.P.E.C. 2008-D12
Read MPEC 2008-D11
Read MPEC 2008-D13
Our Web policy. Index to the CBAT/MPC/ICQ pages.